This demonstration page uses our WeatherBlox Daily Observations layout. Learn more.

Left ArrowRight Arrow

39.08367, -84.50855

Hourly Observations for April 23, 2018

Temp ( °F °C ) Dew Point ( °F °C ) Humidity (%) Winds ( mph kmh ) Pressure ( in mb ) Visibility ( mi km ) Precip ( " mm )
12:53 am 00:53 Clear 47 8.3 41 5 80 80 N N/A 30.14 1021 10 16 N/A
1:53 am 01:53 Clear 46 7.8 42 5.6 86 86 N N/A 30.12 1020 10 16 N/A
2:53 am 02:53 Clear 45 7.2 41 5 86 86 N N/A 30.10 1019 10 16 N/A
3:53 am 03:53 Clear 48 8.9 40 4.4 74 74 NNE 5 7 30.09 1019 10 16 N/A
4:53 am 04:53 Clear 47 8.3 43 6.1 86 86 N N/A 30.09 1019 10 16 N/A
5:53 am 05:53 Clear 47 8.3 42 5.6 83 83 N N/A 30.09 1019 10 16 N/A
6:53 am 06:53 Sunny 48 8.9 43 6.1 83 83 N N/A 30.10 1019 10 16 N/A
7:53 am 07:53 Mostly Sunny 49 9.4 44 6.7 83 83 N N/A 30.12 1020 10 16 N/A
8:53 am 08:53 Cloudy 55 12.8 45 7.2 69 69 NE 5 7 30.13 1020 10 16 N/A
9:53 am 09:53 Cloudy with Light Rain 60 15.6 45 7.2 58 58 ENE 7 11 30.12 1020 10 16 N/A
10:53 am 10:53 Cloudy with Light Rain 59 15 48 8.9 67 67 SE 5 7 30.14 1021 7 11 N/A
11:53 am 11:53 Cloudy with Rain 56 13.3 53 11.7 90 90 N N/A 30.15 1021 3 5 0.09 2.29
12:53 pm 12:53 Cloudy with Light Rain 55 12.8 53 11.7 93 93 ENE 7 11 30.15 1021 4 6 0.10 2.54
1:53 pm 13:53 Cloudy with Rain 56 13.3 54 12.2 93 93 E 5 7 30.14 1021 3 5 0.14 3.56
2:46 pm 14:46 Cloudy with Light Rain 58 14.4 55 12.8 90 90 ESE 6 9 30.15 1021 3 4 0.02 0.51
2:53 pm 14:53 Cloudy with Light Rain 58 14.4 55 12.8 90 90 ESE 7 11 30.13 1020 3 4 0.03 0.76
3:11 pm 15:11 Cloudy with Light Rain 58 14.4 56 13.3 93 93 ESE 8 13 30.12 1020 6 10 N/A
3:53 pm 15:53 Cloudy with Light Rain 58 14.4 54 12.2 87 87 E 10 17 30.12 1020 8 13 0.01 0.25
4:53 pm 16:53 Cloudy with Light Rain 57 13.9 54 12.2 90 90 E 10 17 30.11 1020 5 8 0.05 1.27
5:53 pm 17:53 Cloudy 56 13.3 53 11.7 90 90 E 8 13 30.10 1019 10 16 0.03 0.76
6:53 pm 18:53 Cloudy 56 13.3 53 11.7 90 90 ENE 9 15 30.09 1019 10 16 N/A
7:53 pm 19:53 Cloudy 55 12.8 52 11.1 90 90 ENE 9 15 30.08 1019 10 16 N/A
8:00 pm 20:00 Cloudy 55 12.8 51 10.6 87 87 E 8 13 30.09 1019 10 16 N/A
8:53 pm 20:53 Cloudy 54 12.2 51 10.6 90 90 E 8 13 30.08 1019 10 16 N/A
9:53 pm 21:53 Cloudy with Light Rain 54 12.2 51 10.6 90 90 ENE 7 11 30.07 1018 10 16 N/A
10:53 pm 22:53 Cloudy with Light Rain 54 12.2 50 10 87 87 ENE 8 13 30.06 1018 10 16 N/A
11:53 pm 23:53 Cloudy 54 12.2 50 10 87 87 E 7 11 30.04 1017 10 16 N/A

Powered by AerisWeather